Regional Weather Roundup
Issued by NWS

Home | Current Version | Previous Version | Text Only | Print | Product List | Glossary Off
Versions: 1 2 3 4 5 6 7 8 9 10 11 12 13 14 15 16 17 18 19 20 21 22 23 24 25 26 27 28 29 30 31 32 33 34 35 36 37 38 39 40 41 42 43 44 45 46 47 48 49 50

000
ASUS43 KLMK 241102
RWRKY
KENTUCKY REGIONAL WEATHER ROUNDUP
NATIONAL WEATHER SERVICE LOUISVILLE KY
700 AM EDT WED MAY 24 2017

NOTE "FAIR" INDICATES FEW OR NO CLOUDS BELOW 12,000 FEET
WITH NO SIGNIFICANT WEATHER AND/OR OBSTRUCTIONS TO VISIBILITY.

KYZ001>023-026-027-061>063-070>075-241200-
WESTERN AND SOUTH CENTRAL KENTUCKY

CITY           SKY/WX    TMP DP  RH WIND       PRES   REMARKS
PADUCAH        CLOUDY    57  53  86 NW5       29.56F
HENDERSON      LGT RAIN  60  58  92 NW7       29.55F FOG
OWENSBORO      LGT RAIN  61  58  90 N7        29.54F
HOPKINSVILLE   LGT RAIN  61  61 100 NW7       29.53S
BOWLING GREEN  CLOUDY    63  57  81 W5        29.53F
GLASGOW        NOT AVBL
$$

KYZ024-025-028>034-038-045-046-053-241200-
NORTH CENTRAL KENTUCKY

CITY           SKY/WX    TMP DP  RH WIND       PRES   REMARKS
LOUISVILLE/SDF CLOUDY    63  57  81 CALM      29.52R
LOUISVILLE/LOU CLOUDY    63  60  90 CALM      29.53R
FORT KNOX      CLOUDY    59  58  95 CALM      29.51F
$$

KYZ035>037-039>044-047>052-055>060-089>105-241200-
NORTHEAST KENTUCKY

CITY           SKY/WX    TMP DP  RH WIND       PRES   REMARKS
LEXINGTON      CLOUDY    59  56  89 SE6       29.54F
COVINGTON      CLOUDY    60  58  92 E7        29.53F
FRANKFORT      CLOUDY    59  56  89 SE3       29.53S
$$

KYZ054-064>069-076>088-106>120-241200-
SOUTHEAST KENTUCKY

CITY           SKY/WX    TMP DP  RH WIND       PRES   REMARKS
JACKSON        CLOUDY    58  57  97 CALM      29.58F
LONDON         FOG       57  56  96 CALM      29.57F VSB 1/4
SOMERSET       CLOUDY    55  55 100 CALM      29.57F FOG
MIDDLESBORO    CLOUDY    59  59 100 CALM      29.58F
MONTICELLO     CLOUDY    59  59 100 NE8       29.57F
$$





USA.gov is the U.S. government's official web portal to all federal, state and local government web resources and services.